Date,TemperatureHighF,TemperatureAvgF,TemperatureLowF,DewpointHighF,DewpointAvgF,DewpointLowF,HumidityHigh,HumidityAvg,HumidityLow,PressureMaxIn,PressureMinIn,WindSpeedMaxMPH,WindSpeedAvgMPH,GustSpeedMaxMPH,PrecipitationSumIn
2013-7-1,96.6,75.5,55.3,62.0,53.2,46.0,86,53,18,29.81,29.72,8,1,0,0.00
2013-7-2,100.2,73.3,58.5,61.0,56.8,52.0,89,61,23,29.88,29.68,11,0,0,0.00
2013-7-3,98.0,73.1,52.9,64.0,56.8,51.0,96,64,23,29.90,29.66,5,1,0,0.00
2013-7-4,91.8,72.6,55.1,64.0,56.7,51.0,97,63,28,29.76,29.56,14,1,0,0.00
2013-7-5,89.2,71.2,51.3,58.0,46.7,40.0,91,49,19,29.63,29.52,11,2,0,0.00
2013-7-6,85.3,59.3,41.2,48.0,39.2,31.0,87,55,17,29.70,29.62,12,1,0,0.00
2013-7-7,86.7,64.8,39.7,47.0,40.2,34.0,85,47,18,29.77,29.68,10,1,0,0.00
2013-7-8,87.2,63.6,42.4,51.0,41.9,35.0,88,53,17,29.91,29.78,10,1,0,0.00
2013-7-9,85.8,66.5,43.2,47.0,39.5,34.0,79,44,17,29.96,29.91,13,2,0,0.00
2013-7-10,87.5,66.4,42.2,49.0,39.4,31.0,84,44,14,29.95,29.79,18,2,0,0.00
2013-7-11,83.8,64.8,44.6,50.0,37.9,29.0,87,45,14,29.82,29.69,17,3,0,0.00
2013-7-12,82.7,61.2,37.9,43.0,35.2,31.0,79,44,17,29.85,29.76,11,2,0,0.00
2013-7-13,85.1,62.4,35.6,40.0,34.3,28.0,79,41,15,29.91,29.83,14,2,0,0.00
2013-7-14,88.3,65.6,41.1,46.0,40.5,34.0,82,46,19,29.95,29.78,15,2,0,0.00
2013-7-15,87.5,65.1,45.9,50.0,44.1,39.0,82,52,21,29.83,29.62,15,2,0,0.00
2013-7-16,82.3,66.1,48.8,52.0,39.5,29.0,81,44,15,29.87,29.67,14,2,0,0.00
2013-7-17,87.5,63.0,36.4,45.0,37.0,30.0,84,45,15,30.00,29.87,11,1,0,0.00
2013-7-18,93.9,67.2,40.9,51.0,42.0,34.0,82,47,16,29.99,29.79,8,1,0,0.00
2013-7-19,97.0,71.9,46.0,53.0,44.6,39.0,82,44,17,29.87,29.66,11,1,0,0.00
2013-7-20,98.6,73.6,51.0,59.0,50.0,43.0,82,49,17,29.75,29.56,11,1,0,0.00
2013-7-21,98.3,76.0,51.3,57.0,50.1,42.0,88,48,15,29.68,29.56,11,2,0,0.00
2013-7-22,94.5,72.5,52.3,59.0,48.9,41.0,83,48,22,29.80,29.65,13,2,0,0.00
2013-7-23,89.8,69.5,51.6,58.0,47.5,42.0,72,48,23,29.84,29.76,4,0,0,0.00
2013-7-24,89.3,73.8,55.1,58.0,53.2,49.0,82,52,30,29.83,29.72,13,2,0,0.00
2013-7-25,94.1,70.7,51.8,65.0,54.7,48.0,89,61,28,29.90,29.73,8,1,0,0.00
2013-7-26,90.6,72.2,57.2,57.0,52.6,44.0,87,56,25,29.94,29.83,12,2,0,0.00
2013-7-27,89.3,70.0,46.0,55.0,46.8,41.0,84,49,19,29.90,29.69,12,2,0,0.00
2013-7-28,87.2,68.7,48.8,54.0,46.7,43.0,87,51,22,29.73,29.61,13,2,0,0.00
2013-7-29,81.9,63.0,43.2,49.0,37.5,28.0,85,47,15,29.90,29.69,12,2,0,0.00
2013-7-30,85.0,62.9,37.0,43.0,36.2,28.0,73,42,17,30.01,29.91,12,2,0,0.00
2013-7-31,82.4,66.3,51.4,48.0,42.4,39.0,70,45,24,29.97,29.82,13,2,0,0.00